When you browse on this site, cookies collect data to enhance your experience and personalize the content and advertising you see.
Visit our Privacy Policy to learn more. By continuing to use the site, you agree to this use of cookies and data.

Stündliche Wetter Poti

Heute, 14 Juli, Dienstag

Zeit Temperatur Niederschläge Wind Luftdruck Luftfeuchtigkeit
00:00 +21°C° 1.4 mm 6 m/S 757 mmHg 93%
01:00 +21°C° 2 mm 6 m/S 757 mmHg 94%
02:00 +20°C° 2 mm 6 m/S 757 mmHg 94%
03:00 +20°C° 2 mm 5 m/S 757 mmHg 94%
04:00 +20°C° 1.4 mm 6 m/S 758 mmHg 94%
05:00 +21°C° 1.4 mm 6 m/S 758 mmHg 94%
06:00 +21°C° 1.4 mm 6 m/S 758 mmHg 93%
07:00 +22°C° 1.5 mm 6 m/S 758 mmHg 90%
08:00 +24°C° 1.5 mm 6 m/S 758 mmHg 87%
09:00 +26°C° 1.5 mm 6 m/S 758 mmHg 84%
10:00 +26°C° 0.6 mm 6 m/S 758 mmHg 83%
11:00 +27°C° 0.6 mm 5 m/S 758 mmHg 83%
12:00 +27°C° 0.6 mm 5 m/S 759 mmHg 83%
13:00 +27°C° 0.2 mm 5 m/S 759 mmHg 80%
14:00 +28°C° 0.2 mm 4 m/S 759 mmHg 77%
15:00 +28°C° 0.2 mm 4 m/S 759 mmHg 73%
16:00 +28°C° 0 mm 4 m/S 759 mmHg 74%
17:00 +27°C° 0 mm 4 m/S 760 mmHg 74%
18:00 +27°C° 0 mm 4 m/S 760 mmHg 75%
19:00 +26°C° 0.5 mm 4 m/S 760 mmHg 81%
20:00 +23°C° 0.5 mm 4 m/S 761 mmHg 86%
21:00 +22°C° 0.5 mm 4 m/S 761 mmHg 92%
22:00 +22°C° 0.8 mm 4 m/S 761 mmHg 92%
23:00 +21°C° 0.8 mm 4 m/S 761 mmHg 93%

Morgen, 15 Juli, Mittwoch

Zeit Temperatur Niederschläge Wind Luftdruck Luftfeuchtigkeit
00:00 +21°C° 0.8 mm 4 m/S 762 mmHg 93%
01:00 +21°C° 0.4 mm 3 m/S 762 mmHg 93%
02:00 +21°C° 0.4 mm 3 m/S 762 mmHg 93%
03:00 +21°C° 0.4 mm 3 m/S 762 mmHg 93%
04:00 +21°C° 0.3 mm 3 m/S 761 mmHg 93%
05:00 +21°C° 0.3 mm 3 m/S 761 mmHg 93%
06:00 +21°C° 0.3 mm 3 m/S 761 mmHg 93%
07:00 +24°C° 0.2 mm 3 m/S 761 mmHg 86%
08:00 +26°C° 0.2 mm 3 m/S 761 mmHg 80%
09:00 +27°C° 0.2 mm 3 m/S 761 mmHg 73%
10:00 +28°C° 0 mm 3 m/S 761 mmHg 69%
11:00 +29°C° 0 mm 4 m/S 760 mmHg 65%
12:00 +29°C° 0 mm 4 m/S 760 mmHg 61%
13:00 +29°C° 0 mm 4 m/S 760 mmHg 62%
14:00 +29°C° 0 mm 4 m/S 760 mmHg 63%
15:00 +29°C° 0 mm 4 m/S 760 mmHg 64%
16:00 +29°C° 0 mm 4 m/S 760 mmHg 67%
17:00 +28°C° 0 mm 3 m/S 760 mmHg 70%
18:00 +27°C° 0 mm 3 m/S 760 mmHg 73%
19:00 +26°C° 0 mm 3 m/S 761 mmHg 78%
20:00 +25°C° 0 mm 2 m/S 761 mmHg 83%
21:00 +23°C° 0 mm 2 m/S 761 mmHg 88%
22:00 +23°C° 0 mm 1 m/S 761 mmHg 87%
23:00 +23°C° 0 mm 1 m/S 761 mmHg 87%

übermorgen, 16 Juli, Donnerstag

Zeit Temperatur Niederschläge Wind Luftdruck Luftfeuchtigkeit
00:00 +23°C° 0 mm 1 m/S 761 mmHg 87%
01:00 +22°C° 0 mm 1 m/S 761 mmHg 88%
02:00 +22°C° 0 mm 1 m/S 761 mmHg 90%
03:00 +22°C° 0 mm 1 m/S 760 mmHg 91%
04:00 +22°C° 0 mm 1 m/S 760 mmHg 91%
05:00 +22°C° 0 mm 1 m/S 760 mmHg 92%
06:00 +22°C° 0 mm 1 m/S 760 mmHg 92%
07:00 +24°C° 0 mm 1 m/S 760 mmHg 84%
08:00 +26°C° 0 mm 1 m/S 759 mmHg 75%
09:00 +29°C° 0 mm 1 m/S 759 mmHg 67%
10:00 +29°C° 0 mm 1 m/S 759 mmHg 64%
11:00 +30°C° 0 mm 2 m/S 759 mmHg 62%
12:00 +30°C° 0 mm 2 m/S 758 mmHg 59%
13:00 +30°C° 0 mm 2 m/S 758 mmHg 60%
14:00 +30°C° 0 mm 2 m/S 758 mmHg 61%
15:00 +29°C° 0 mm 3 m/S 758 mmHg 61%
16:00 +29°C° 0 mm 3 m/S 758 mmHg 64%
17:00 +28°C° 0 mm 2 m/S 757 mmHg 67%
18:00 +28°C° 0 mm 2 m/S 757 mmHg 71%
19:00 +26°C° 0 mm 2 m/S 758 mmHg 76%
20:00 +24°C° 0 mm 1 m/S 758 mmHg 81%
21:00 +23°C° 0 mm 1 m/S 758 mmHg 87%
22:00 +22°C° 0 mm 1 m/S 758 mmHg 88%
23:00 +22°C° 0 mm 1 m/S 758 mmHg 90%

17 Juli, Freitag

Zeit Temperatur Niederschläge Wind Luftdruck Luftfeuchtigkeit
00:00 +21°C° 0 mm 1 m/S 757 mmHg 92%
01:00 +21°C° 0 mm 1 m/S 757 mmHg 93%
02:00 +21°C° 0 mm 1 m/S 757 mmHg 94%
03:00 +20°C° 0 mm 2 m/S 757 mmHg 95%
04:00 +21°C° 0 mm 1 m/S 756 mmHg 93%
05:00 +22°C° 0 mm 1 m/S 756 mmHg 92%
06:00 +22°C° 0 mm 1 m/S 756 mmHg 91%
07:00 +24°C° 0 mm 1 m/S 756 mmHg 83%
08:00 +26°C° 0 mm 1 m/S 756 mmHg 75%
09:00 +27°C° 0 mm 0 m/S 756 mmHg 68%
10:00 +29°C° 0 mm 1 m/S 756 mmHg 66%
11:00 +29°C° 0 mm 2 m/S 756 mmHg 65%
12:00 +29°C° 0 mm 3 m/S 756 mmHg 64%
13:00 +29°C° 0 mm 3 m/S 756 mmHg 64%
14:00 +29°C° 0 mm 3 m/S 756 mmHg 63%
15:00 +29°C° 0 mm 4 m/S 756 mmHg 63%
16:00 +29°C° 0 mm 3 m/S 756 mmHg 65%
17:00 +28°C° 0 mm 3 m/S 756 mmHg 67%
18:00 +28°C° 0 mm 2 m/S 757 mmHg 70%
19:00 +26°C° 0 mm 2 m/S 757 mmHg 74%
20:00 +25°C° 0 mm 1 m/S 757 mmHg 79%
21:00 +24°C° 0 mm 1 m/S 758 mmHg 83%
22:00 +23°C° 0 mm 1 m/S 758 mmHg 85%
23:00 +23°C° 0 mm 1 m/S 758 mmHg 87%

18 Juli, Samstag

Zeit Temperatur Niederschläge Wind Luftdruck Luftfeuchtigkeit
00:00 +22°C° 0 mm 1 m/S 758 mmHg 89%
01:00 +22°C° 0 mm 1 m/S 758 mmHg 91%
02:00 +22°C° 0 mm 1 m/S 758 mmHg 93%
03:00 +20°C° 0 mm 2 m/S 758 mmHg 94%
04:00 +21°C° 0 mm 2 m/S 758 mmHg 93%
05:00 +22°C° 0 mm 1 m/S 758 mmHg 92%
06:00 +23°C° 0 mm 1 m/S 758 mmHg 91%
07:00 +25°C° 0 mm 1 m/S 757 mmHg 83%
08:00 +27°C° 0 mm 1 m/S 757 mmHg 75%
09:00 +29°C° 0 mm 1 m/S 757 mmHg 67%
10:00 +30°C° 0 mm 1 m/S 757 mmHg 63%
11:00 +32°C° 0 mm 2 m/S 757 mmHg 59%
12:00 +34°C° 0 mm 2 m/S 757 mmHg 55%
13:00 +33°C° 0 mm 3 m/S 756 mmHg 59%
14:00 +31°C° 0 mm 3 m/S 756 mmHg 62%
15:00 +31°C° 0 mm 3 m/S 756 mmHg 65%
16:00 +30°C° 0 mm 3 m/S 756 mmHg 68%
17:00 +29°C° 0 mm 3 m/S 757 mmHg 72%
18:00 +29°C° 0 mm 2 m/S 757 mmHg 75%
19:00 +27°C° 0 mm 2 m/S 757 mmHg 80%
20:00 +26°C° 0 mm 1 m/S 757 mmHg 86%
21:00 +24°C° 0 mm 1 m/S 758 mmHg 92%
22:00 +24°C° 0 mm 1 m/S 758 mmHg 93%
23:00 +24°C° 0 mm 1 m/S 758 mmHg 94%

19 Juli, Sonntag

Zeit Temperatur Niederschläge Wind Luftdruck Luftfeuchtigkeit
00:00 +21°C° 0 mm 0 m/S 758 mmHg 95%
01:00 +21°C° 0 mm 0 m/S 758 mmHg 95%
02:00 +23°C° 0 mm 1 m/S 758 mmHg 95%
03:00 +23°C° 0 mm 1 m/S 758 mmHg 96%
04:00 +23°C° 0 mm 1 m/S 758 mmHg 95%
05:00 +24°C° 0 mm 1 m/S 758 mmHg 94%
06:00 +24°C° 0 mm 1 m/S 758 mmHg 93%
07:00 +26°C° 0 mm 1 m/S 758 mmHg 83%
08:00 +28°C° 0 mm 1 m/S 758 mmHg 74%
09:00 +30°C° 0 mm 1 m/S 757 mmHg 64%
10:00 +31°C° 0 mm 1 m/S 757 mmHg 62%
11:00 +32°C° 0 mm 1 m/S 757 mmHg 60%
12:00 +34°C° 0 mm 2 m/S 757 mmHg 57%
13:00 +32°C° 0 mm 2 m/S 757 mmHg 61%
14:00 +33°C° 0 mm 3 m/S 757 mmHg 64%
15:00 +31°C° 0 mm 3 m/S 757 mmHg 67%
16:00 +30°C° 0 mm 3 m/S 757 mmHg 70%
17:00 +30°C° 0 mm 3 m/S 757 mmHg 73%
18:00 +29°C° 0 mm 3 m/S 757 mmHg 77%
19:00 +28°C° 0 mm 2 m/S 757 mmHg 82%
20:00 +26°C° 0 mm 2 m/S 757 mmHg 87%
21:00 +25°C° 0 mm 2 m/S 758 mmHg 93%
22:00 +25°C° 0 mm 1 m/S 758 mmHg 94%
23:00 +24°C° 0 mm 1 m/S 757 mmHg 94%
Mehr zeigen